FW7500 Weather Reports


Display with metric or nautical units.
time (UTC)temp
F
wind
direction
speed
MPH
gust
MPH
rain 1hr
in
rain 24hr
in
rain mn
in
humidity
%
barometer
mb
20260505083051 64 360 7.0 15.0 0.00 0.01 0.00 61 1008.5
20260505081604 64 360 8.0 18.0 0.00 0.01 0.00 61 1008.2
20260505080057 64 360 7.0 14.0 0.00 0.01 0.00 61 1008.2
20260505074548 64 360 7.0 14.0 0.00 0.01 0.00 62 1008.1
20260505073049 64 360 9.0 17.0 0.00 0.01 0.00 61 1007.9
20260505071554 64 360 7.0 16.0 0.00 0.01 0.00 61 1007.9
20260505070052 64 360 8.0 16.0 0.00 0.01 0.00 61 1008.2
20260505064546 64 360 8.0 15.0 0.00 0.01 0.00 61 1008.3
20260505063051 64 360 10.0 15.0 0.00 0.01 0.00 61 1008.2
20260505061546 64 360 7.0 15.0 0.00 0.01 0.00 62 1008.1
20260505060048 64 360 8.0 17.0 0.00 0.01 0.00 62 1008.0
20260505054549 64 360 7.0 14.0 0.00 0.01 0.00 64 1007.9
20260505053049 64 360 7.0 13.0 0.00 0.01 0.00 64 1008.0
20260505051549 64 360 5.0 11.0 0.00 0.01 0.00 64 1008.0
20260505041549 65 360 7.0 12.0 0.00 0.01 0.00 63 1008.2
20260505040050 65 360 5.0 10.0 0.00 0.01 0.00 64 1008.5
20260505034552 65 360 6.0 12.0 0.00 0.01 0.01 64 1008.5
20260505033053 65 360 5.0 10.0 0.00 0.01 0.01 64 1008.2
20260505031552 65 360 5.0 9.0 0.00 0.01 0.01 65 1008.2
20260505030049 65 360 4.0 6.0 0.00 0.01 0.01 65 1008.1
20260505024555 65 360 4.0 7.0 0.00 0.01 0.01 64 1008.0
20260505023052 66 360 3.0 5.0 0.00 0.01 0.01 63 1007.9
20260505021546 66 360 3.0 6.0 0.00 0.01 0.01 62 1007.5
20260505020051 67 360 4.0 8.0 0.00 0.01 0.01 61 1007.2
20260505014552 67 360 3.0 7.0 0.00 0.01 0.01 59 1007.0
20260505013056 68 360 3.0 8.0 0.00 0.01 0.01 58 1007.0
20260505011553 68 360 3.0 6.0 0.00 0.01 0.01 56 1006.8
20260505010109 69 201 3.0 6.0 0.00 0.01 0.01 55 1006.9
20260505004547 70 360 3.0 6.0 0.00 0.01 0.01 54 1006.8
20260505003053 70 360 4.0 8.0 0.00 0.01 0.01 54 1007.0
20260505001549 71 360 4.0 11.0 0.00 0.01 0.01 53 1007.1
20260505000050 72 360 4.0 8.0 0.00 0.01 0.01 53 1007.2
20260504234552 73 360 5.0 9.0 0.00 0.01 0.01 50 1007.2
20260504233052 73 360 5.0 12.0 0.00 0.01 0.01 49 1007.3
20260504231557 74 264 9.0 16.0 0.00 0.01 0.01 47 1007.6
20260504230052 74 360 9.0 16.0 0.00 0.01 0.01 45 1007.7
20260504224549 75 360 9.0 14.0 0.00 0.01 0.01 46 1007.8
20260504223058 74 360 10.0 19.0 0.00 0.01 0.01 47 1008.1
20260504221603 75 360 10.0 18.0 0.00 0.01 0.01 46 1008.1
20260504220052 76 360 7.0 18.0 0.00 0.01 0.01 46 1008.1
20260504214600 76 360 9.0 21.0 0.00 0.01 0.01 45 1008.2
20260504213102 76 360 9.0 18.0 0.00 0.01 0.01 47 1008.4
20260504211550 76 224 11.0 19.0 0.00 0.01 0.01 48 1008.4
20260504210049 76 259 8.0 14.0 0.00 0.01 0.01 49 1008.3
20260504204553 76 271 9.0 19.0 0.00 0.01 0.01 48 1008.4
20260504203052 75 262 6.0 18.0 0.00 0.01 0.01 53 1008.5
20260504201542 74 360 7.0 13.0 0.00 0.01 0.01 51 1008.7
20260504200050 74 360 6.0 13.0 0.00 0.01 0.01 53 1009.0
20260504194557 74 288 7.0 18.0 0.00 0.01 0.01 51 1009.3
20260504193048 74 360 10.0 16.0 0.00 0.01 0.01 53 1009.4
20260504191551 74 360 7.0 13.0 0.00 0.01 0.01 53 1009.6
20260504190047 72 360 7.0 14.0 0.00 0.01 0.01 56 1010.0
20260504184550 72 360 6.0 19.0 0.00 0.01 0.01 55 1010.0
20260504183054 71 264 8.0 19.0 0.00 0.01 0.01 58 1009.9
20260504181551 71 274 11.0 18.0 0.00 0.01 0.01 57 1009.8
20260504180052 70 276 11.0 19.0 0.00 0.01 0.01 58 1009.8
20260504174547 69 360 10.0 19.0 0.00 0.01 0.01 58 1009.8
20260504173049 69 360 6.0 14.0 0.00 0.01 0.01 59 1009.9
20260504171554 67 360 8.0 13.0 0.00 0.01 0.01 64 1009.9
20260504150107 62 360 5.0 11.0 0.00 0.01 0.01 70 1010.3